Home > Weather > Little Rock > Past weeks

Flag for USA Past Weather in Little Rock, Arkansas, USA — Yesterday and Last 2 Weeks

Now
87 °F

Partly sunny.


Feels Like: 89 °F
Forecast: 66 / 85 °F
Wind: 14 mph from South

Location: Adams Field

Current Time: May 24, 2016 at 4:42:36 PM

Latest Report: May 24, 2016 at 3:53 PM


Visibility: 10 mi

Pressure: 29.98 "Hg

Humidity: 50%

Dew Point: 66 °F

Location of Little RockLocation

Past Weather in Little Rock — Graph

°F

Little Rock Temperature Yesterday

Maximum temperature yesterday: 83 °F (at 2:53 PM)
Minimum temperature yesterday: 58 °F (at 5:53 AM)
Average temperature yesterday: 72 °F

High & Low Weather Summary for the Past Weeks

 TemperatureHumidityPressure
High87 °F (May 10, 4:53 PM)93% (May 21, 2:53 AM)30.24 "Hg (May 21, 2:53 AM)
Low54 °F (May 19, 5:53 AM)26% (May 13, 3:53 PM)29.74 "Hg (May 9, 6:53 PM)
Average69 °F67%30.04 "Hg
* Reported May 9 2:53 PM — May 24 2:53 PM, Little Rock, Weather by CustomWeather, © 2016

Note: Actual official high and low records may vary slightly from our data, if they occured in-between our weather recording intervals... More about our weather records

Advertising

Little Rock Weather History for the Previous 24 Hours

Scroll right to see more
 ConditionsComfort  
Time TempWeatherWind HumidityBarometerVisibility
2:53 PM
Tue, May 24
86 °FScattered clouds.13 mph55%29.99 "Hg10 mi
1:53 PM87 °FBroken clouds.16 mph53%30.00 "Hg10 mi
12:53 PM85 °FBroken clouds.15 mph59%30.01 "Hg10 mi
11:53 AM83 °FBroken clouds.13 mph63%30.04 "Hg10 mi
10:53 AM81 °FScattered clouds.15 mph62%30.04 "Hg10 mi
9:53 AM77 °FBroken clouds.14 mph71%30.05 "Hg10 mi
8:53 AM77 °FPartly sunny.10 mph71%30.04 "Hg10 mi
7:53 AM71 °FBroken clouds.8 mph73%30.02 "Hg10 mi
6:53 AM68 °FPassing clouds.5 mph82%30.00 "Hg10 mi
5:53 AM67 °FPassing clouds.No wind81%29.98 "Hg10 mi
4:53 AM65 °FPassing clouds.No wind87%29.97 "Hg10 mi
3:53 AM65 °FClear.No wind85%29.96 "Hg10 mi
2:53 AM66 °FClear.No wind81%29.96 "Hg10 mi
1:53 AM68 °FPassing clouds.No wind76%29.96 "Hg10 mi
12:53 AM69 °FPassing clouds.3 mph73%29.96 "Hg10 mi
11:53 PM
Mon, May 23
68 °FPassing clouds.6 mph82%29.94 "Hg10 mi
10:53 PM71 °FPartly cloudy.7 mph73%29.95 "Hg10 mi
9:53 PM72 °FPartly cloudy.5 mph71%29.94 "Hg10 mi
8:53 PM73 °FPartly sunny.6 mph69%29.92 "Hg10 mi
7:53 PM76 °FPartly sunny.6 mph62%29.94 "Hg10 mi
6:53 PM80 °FBroken clouds.7 mph51%29.94 "Hg10 mi
5:53 PM80 °FBroken clouds.6 mph52%29.92 "Hg10 mi
4:53 PM80 °FMore clouds than sun.6 mph51%29.91 "Hg10 mi
Weather by CustomWeather, © 2016

See weather overviewHow to use our weather pages